Flag for Ireland Weather past 2 weeks in Galway, Ireland

Now
45 °F

Broken clouds.


Feels Like: 37 °F
Forecast: 39 / 50 °F
Wind: 17 mph from South

Location: Shannon Airport

Current Time: Feb 27, 2015 at 1:42:14 PM

Latest Report: Feb 27, 2015 at 1:00 PM


Visibility: N/A

Pressure: 29.95 "Hg

Humidity: 76%

Dew point: 37 °F

Location of GalwayLocation

Historic Weather in Galway — Graph

°F

Galway temperature yesterday

Maximum temperature yesterday: 52 °F (at 12:00 AM)
Minimum temperature yesterday: 37 °F (at 3:00 PM)
Average temperature yesterday: 43 °F

Past Weeks' High & Low Weather Summary

 TemperatureHumidityPressure
High54 °F (Feb 18, 11:00 AM)100% (Feb 13, 9:30 AM)30.60 "Hg (Feb 13, 9:30 AM)
Low34 °F (Feb 16, 11:30 PM)53% (Feb 26, 11:00 AM)29.00 "Hg (Feb 23, 3:00 PM)
Average44 °F84%29.81 "Hg
* Reported Feb 12 12:00 Noon — Feb 27 12:30 PM, Galway, Weather by CustomWeather, © 2015

Note: Actual official high and low records may vary slightly from our data, if they occured in-between our weather recording intervals... More about our weather records

Advertising

Galway weather history for previous 24 hours

 ConditionsComfort  
Time TempWeatherWind HumidityBarometerVisibility
12:30 PM
Fri, Feb 27
45 °FLight rain. More clouds than sun.17 mph76%29.98 "HgN/A
12:00 PM43 °FMostly cloudy.14 mph76%30.01 "HgN/A
11:30 AM43 °FPartly sunny.14 mph76%30.01 "HgN/A
11:00 AM43 °FPartly sunny.14 mph76%30.01 "HgN/A
10:30 AM43 °FPartly sunny.15 mph76%30.04 "HgN/A
10:00 AM43 °FPartly sunny.10 mph76%30.04 "HgN/A
9:30 AM41 °FPartly sunny.12 mph81%30.07 "HgN/A
9:00 AM39 °FPartly sunny.12 mph87%30.07 "HgN/A
8:30 AM39 °FPartly sunny.7 mph81%30.07 "HgN/A
8:00 AM37 °FScattered clouds.9 mph93%30.07 "HgN/A
7:30 AM37 °FScattered clouds.10 mph93%30.07 "HgN/A
7:00 AM37 °FPassing clouds.10 mph93%30.07 "HgN/A
6:30 AM39 °FPassing clouds.9 mph81%30.07 "HgN/A
6:00 AM39 °FPassing clouds.8 mph87%30.07 "HgN/A
5:30 AM39 °FPassing clouds.8 mph87%30.09 "HgN/A
5:00 AM39 °FPassing clouds.7 mph87%30.09 "HgN/A
4:30 AM37 °FPassing clouds.7 mph93%30.09 "HgN/A
3:30 AM37 °FPassing clouds.8 mph87%30.09 "HgN/A
3:00 AM37 °FPassing clouds.7 mph87%30.09 "HgN/A
2:30 AM39 °FSprinkles. Passing clouds.10 mph81%30.09 "HgN/A
2:00 AM37 °FPassing clouds.9 mph87%30.12 "HgN/A
1:30 AM37 °FPassing clouds.10 mph87%30.09 "HgN/A
1:00 AM39 °FPartly cloudy.18 mph81%30.09 "HgN/A
12:30 AM39 °FPassing clouds.12 mph87%30.09 "HgN/A
12:00 AM37 °FPassing clouds.7 mph87%30.09 "HgN/A
11:30 PM
Thu, Feb 26
37 °FPassing clouds.7 mph87%30.07 "HgN/A
11:00 PM39 °FPassing clouds.6 mph81%30.07 "HgN/A
10:30 PM37 °FPassing clouds.8 mph87%30.07 "HgN/A
10:00 PM37 °FPartly cloudy.6 mph87%30.07 "HgN/A
9:30 PM39 °FSprinkles. Passing clouds.14 mph81%30.07 "HgN/A
9:00 PM37 °FPassing clouds.8 mph87%30.04 "HgN/A
8:30 PM37 °FPassing clouds.10 mph93%30.04 "HgN/A
8:00 PM39 °FPassing clouds.12 mph81%30.04 "HgN/A
7:30 PM37 °FPassing clouds.8 mph87%30.04 "HgN/A
7:00 PM37 °FSprinkles. Passing clouds.23 mph87%30.04 "Hg6 mi
6:30 PM39 °FPassing clouds.14 mph75%30.01 "HgN/A
6:00 PM39 °FPassing clouds.14 mph75%30.01 "HgN/A
5:30 PM41 °FScattered clouds.21 mph76%30.01 "HgN/A
5:00 PM41 °FPassing clouds.18 mph76%30.01 "HgN/A
4:30 PM41 °FScattered clouds.18 mph81%30.01 "HgN/A
4:00 PM41 °FScattered showers. Scattered clouds.9 mph81%30.01 "HgN/A
3:30 PM41 °FSprinkles. Partly sunny.16 mph76%30.01 "HgN/A
3:00 PM37 °FSprinkles. Broken clouds.16 mph87%30.01 "Hg5 mi
2:30 PM45 °FScattered clouds.23 mph61%30.01 "HgN/A
2:00 PM45 °FPassing clouds.22 mph61%29.98 "HgN/A
1:30 PM45 °FScattered clouds.24 mph53%29.98 "HgN/A
1:00 PM45 °FPassing clouds.26 mph66%29.98 "HgN/A
Weather by CustomWeather, © 2015

See weather overviewHow to use our weather pages